Hourly Data Report for June 15, 2017

TORONTO CITY
ONTARIO

43°40'00.000" N
79°24'00.000" W
112.50 m
6158355
71508
XTO

Download Data

Hourly Data (June 2017)
Hourly Data Report for June 15, 2017
TIME
LST
Temp Definition
°C
Dew Point Definition
°C
Rel Hum Definition
%
Precip. Amount Definition
mm

Wind Dir Definition
10's deg

Wind Spd Definition
km/h
Visibility Definition
km
Stn Press Definition
kPa
Hmdx Definition


Wind Chill Definition


Weather Definition


00:00 18.0 4.2 40 0.0 LegendMM LegendMM   100.19     LegendNANA
01:00 18.3 2.2 34 0.0 LegendMM LegendMM   100.15     LegendNANA
02:00 17.6 5.0 43 0.0 LegendMM LegendMM   100.09     LegendNANA
03:00 17.4 5.5 45 0.0 LegendMM LegendMM   100.04     LegendNANA
04:00 17.3 6.1 48 0.0 LegendMM LegendMM   100.00     LegendNANA
05:00 17.1 7.0 51 0.0 LegendMM LegendMM   99.96     LegendNANA
06:00 16.7 8.0 56 0.0 LegendMM LegendMM   99.93     LegendNANA
07:00 16.4 8.2 58 0.0 LegendMM LegendMM   99.96     LegendNANA
08:00 16.4 8.6 60 0.0 LegendMM LegendMM   99.94     LegendNANA
09:00 17.3 9.8 61 0.0 LegendMM LegendMM   99.90     LegendNANA
10:00 16.6 10.6 68 0.0 LegendMM LegendMM   99.89     LegendNANA
11:00 16.8 11.5 71 0.0 LegendMM LegendMM   99.85     LegendNANA
12:00 17.0 11.7 71 0.0 LegendMM LegendMM   99.83     LegendNANA
13:00 16.3 12.3 78 0.0 LegendMM LegendMM   99.79     LegendNANA
14:00 17.8 12.9 73 0.0 LegendMM LegendMM   99.77     LegendNANA
15:00 17.5 12.9 74 0.0 LegendMM LegendMM   99.72     LegendNANA
16:00 18.1 12.5 70 0.0 LegendMM LegendMM   99.66     LegendNANA
17:00 18.4 12.9 71 0.0 LegendMM LegendMM   99.60     LegendNANA
18:00 18.2 13.6 75 0.0 LegendMM LegendMM   99.64     LegendNANA
19:00 18.2 14.6 80 0.0 LegendMM LegendMM   99.59     LegendNANA
20:00 18.5 14.9 80 0.0 LegendMM LegendMM   99.66     LegendNANA
21:00 18.6 15.2 81 0.0 LegendMM LegendMM   99.64     LegendNANA
22:00 18.6 15.4 82 0.0 LegendMM LegendMM   99.60     LegendNANA
23:00 18.1 14.9 82 0.0 LegendMM LegendMM   99.59     LegendNANA

Notes on Data Quality.

Legend

  • E = Estimated
  • M = Missing
  • NA = Not Available*
  • [empty] = Indicates an unobserved value
Date modified: